Weather in Spasskaya Polist

Russia / Novgorod Oblast     58°55′25″N   31°30′46″E
temp.,
°C
wind,
m/s
gust,
m/s
humid.,
%
clouds,
%
prec.,
mm/h
press.,
hPa
HPBL,
m
1 march, mon
mon100:00+1w2296100 0.0 102166
03:00−2w379664 0.0 1022154
06:00−2wsw389735 0.0 1020251
09:00+1w499767 0.0 1020484
12:00+2w5993100 0.0 1019502
15:00+3w41189100 0.0 1018665
18:00+2w41289100 0.0 1016450
21:00+2w41491100 0.0 1014698
2 march, tue
tue200:00+1wnw41192100 0.0 1012711
03:000wnw4139299 0.0 1013480
06:00−1wnw4129321 0.0 1012478
09:000wnw4129052 0.0 1012581
12:00+2wnw5108373 0.0 1012734
15:00+2nw6108069 0.0 1013940
18:00+1nw51179100 0.0 1014940
21:00−1nw4138760 0.0 1017586
3 march, wed
wed300:00−2wnw310900 0.0 1018426
03:00−2wnw412890 0.0 1018456
06:00−2wnw4129015 0.0 1017479
09:00−2wnw5129018 0.0 1017550
12:00+1wnw5108058 0.0 1017710
15:00+1w5108164 0.0 1015687
18:00+1w41380100 0.0 1012877
21:00+1wsw51482100 0.0 1008920
4 march, thu
thu400:00+1wsw51382100 0.0 1004873
03:00+1w51295100 0.1 1001801
06:00+1w51191100 0.5 999878
09:00−1w4108283 0.6 998803
12:00−1nw488597 0.9 999820
15:00−1nw597298 1.2 10011237
18:00−3nw4993100 0.4 1003687
21:00−4nnw4883100 0.9 1005860
5 march, fri
fri500:00−6nw378630 0.0 1007426
03:00−7wnw249214 0.0 1008142
06:00−7nw129452 0.0 100840
09:00−6wnw118973 0.0 100999
12:00−4n127382 0.0 1010667
15:00−3n126391 0.0 1012992
18:00−5n237698 0.0 101291
21:00−7nne248786 0.0 1014144